EW5684 Weather Reports


time (UTC)temp
C
wind
direction
speed
KPH
gust
KPH
rain 1hr
cm
rain 24hr
cm
rain mn
cm
humidity
%
barometer
mb
20260506203959 14 0 8.0 14.5 0.00 0.76 0.76 53 1011.1
20260506203449 14 0 9.7 14.5 0.00 0.76 0.76 53 1011.0
20260506202949 14 0 8.0 16.1 0.00 0.76 0.76 53 1010.9
20260506202449 14 0 11.3 16.1 0.00 0.76 0.76 53 1010.9
20260506201949 14 0 8.0 20.9 0.00 0.76 0.76 54 1010.8
20260506201450 15 0 14.5 20.9 0.00 0.76 0.76 54 1010.7
20260506200949 15 0 9.7 17.7 0.00 0.76 0.76 54 1010.6
20260506200451 15 0 9.7 19.3 0.00 0.76 0.76 54 1010.6
20260506200233 15 0 8.0 19.3 0.00 0.76 0.76 54 1010.4
20260506195448 15 0 9.7 17.7 0.00 0.76 0.76 54 1010.3
20260506194959 15 0 9.7 16.1 0.00 0.76 0.76 55 1010.2
20260506194458 15 0 4.8 11.3 0.00 0.76 0.76 55 1010.1
20260506194212 15 0 8.0 17.7 0.00 0.76 0.76 55 1010.0
20260506193448 15 0 11.3 17.7 0.00 0.76 0.76 55 1009.8
20260506192948 15 0 11.3 22.5 0.00 0.76 0.76 55 1009.6
20260506192448 15 0 11.3 22.5 0.00 0.76 0.76 55 1009.5
20260506191959 15 0 11.3 24.1 0.00 0.76 0.76 55 1009.5
20260506191448 15 0 11.3 24.1 0.00 0.76 0.76 55 1009.5
20260506190947 15 0 12.9 22.5 0.00 0.76 0.76 55 1009.3
20260506190447 15 0 14.5 22.5 0.00 0.76 0.76 55 1009.2
20260506185947 15 0 14.5 19.3 0.00 0.76 0.76 55 1009.1
20260506185448 16 0 14.5 19.3 0.00 0.76 0.76 55 1009.1
20260506184947 16 0 12.9 19.3 0.00 0.76 0.76 55 1009.0
20260506184447 16 0 11.3 17.7 0.00 0.76 0.76 54 1008.8
20260506183947 16 0 9.7 16.1 0.00 0.76 0.76 54 1008.7
20260506183706 16 0 8.0 17.7 0.00 0.76 0.76 53 1008.6
20260506182946 16 0 6.4 17.7 0.00 0.76 0.76 53 1008.4
20260506182447 17 0 11.3 17.7 0.00 0.76 0.76 52 1008.3
20260506181947 17 0 8.0 19.3 0.00 0.76 0.76 51 1008.2
20260506181446 17 0 14.5 19.3 0.00 0.76 0.76 50 1008.0
20260506180946 17 0 9.7 17.7 0.00 0.76 0.76 50 1007.9
20260506180446 17 0 12.9 20.9 0.00 0.76 0.76 49 1007.9
20260506175946 17 0 9.7 20.9 0.00 0.76 0.76 49 1007.8
20260506175446 17 0 12.9 20.9 0.00 0.76 0.76 48 1007.8
20260506174945 17 0 14.5 20.9 0.00 0.76 0.76 48 1007.7
20260506174446 18 0 9.7 17.7 0.00 0.76 0.76 47 1007.6
20260506173946 18 0 6.4 9.7 0.00 0.76 0.76 45 1007.6
20260506173446 18 0 6.4 9.7 0.00 0.76 0.76 44 1007.4
20260506172945 18 0 6.4 16.1 0.00 0.76 0.76 43 1007.3
20260506172445 18 0 6.4 16.1 0.00 0.76 0.76 42 1007.2
20260506171945 18 0 9.7 16.1 0.00 0.76 0.76 41 1007.2
20260506171445 18 0 9.7 16.1 0.00 0.76 0.76 41 1007.0
20260506171208 18 0 9.7 14.5 0.00 0.76 0.76 43 1006.9
20260506170444 18 0 6.4 14.5 0.00 0.76 0.76 42 1006.8
20260506165945 18 0 9.7 14.5 0.00 0.76 0.76 42 1006.8
20260506165704 18 0 8.0 14.5 0.00 0.76 0.76 42 1006.8
20260506164944 18 0 8.0 16.1 0.00 0.76 0.76 42 1006.8
20260506164443 18 0 9.7 16.1 0.00 0.76 0.76 43 1006.9
20260506163944 18 0 9.7 20.9 0.00 0.76 0.76 45 1006.9
20260506163444 18 0 9.7 20.9 0.00 0.76 0.76 46 1006.8
20260506162944 18 0 11.3 14.5 0.00 0.76 0.76 47 1006.8
20260506162444 18 0 9.7 14.5 0.00 0.76 0.76 47 1006.8
20260506161943 19 0 6.4 17.7 0.00 0.76 0.76 47 1006.7
20260506161444 19 0 11.3 17.7 0.00 0.76 0.76 46 1006.6
20260506160943 19 0 9.7 17.7 0.00 0.76 0.76 46 1006.6
20260506160443 20 7 9.7 19.3 0.00 0.76 0.76 46 1006.5
20260506155943 20 0 12.9 19.3 0.00 0.76 0.76 46 1006.6
20260506155444 20 0 9.7 20.9 0.00 0.76 0.76 46 1006.6
20260506154943 20 0 11.3 20.9 0.00 0.76 0.76 45 1006.6
20260506154442 20 0 11.3 19.3 0.00 0.76 0.76 45 1006.6
20260506153943 20 0 9.7 19.3 0.00 0.76 0.76 45 1006.6
20260506153443 20 0 8.0 20.9 0.00 0.76 0.76 45 1006.6
20260506153205 20 0 11.3 25.7 0.00 0.76 0.76 45 1006.6
20260506152443 20 0 11.3 25.7 0.00 0.76 0.76 44 1006.7
20260506151941 21 0 16.1 20.9 0.00 0.76 0.76 44 1006.7
20260506151442 21 0 9.7 20.9 0.00 0.76 0.76 43 1006.7
20260506150942 21 0 9.7 19.3 0.00 0.76 0.76 45 1006.7
20260506150442 21 0 9.7 24.1 0.00 0.76 0.76 44 1006.7
20260506145942 21 0 16.1 24.1 0.00 0.76 0.76 44 1006.7
20260506145442 21 0 11.3 20.9 0.00 0.76 0.76 42 1006.7
20260506145205 21 0 9.7 17.7 0.00 0.76 0.76 41 1006.7
20260506144442 21 0 9.7 17.7 0.00 0.76 0.76 42 1006.7
20260506144200 21 0 8.0 11.3 0.00 0.76 0.76 42 1006.6
20260506143708 21 0 8.0 17.7 0.00 0.76 0.76 41 1006.7
20260506142941 22 340 8.0 17.7 0.00 0.76 0.76 39 1006.7
20260506142442 22 45 1.6 16.1 0.00 0.76 0.76 37 1006.7
20260506142205 21 97 8.0 16.1 0.00 0.76 0.76 37 1006.8
20260506141441 22 96 8.0 11.3 0.00 0.76 0.76 38 1006.8
20260506140941 22 86 4.8 8.0 0.00 0.76 0.76 37 1006.9
20260506140440 22 41 3.2 8.0 0.00 0.76 0.76 38 1006.9
20260506135940 21 87 3.2 8.0 0.00 0.76 0.76 39 1007.0
20260506135439 21 182 3.2 9.7 0.00 0.76 0.76 38 1007.0
20260506134938 21 189 4.8 9.7 0.00 0.76 0.76 40 1007.1
20260506134439 21 199 4.8 9.7 0.00 0.76 0.76 41 1007.1
20260506133938 21 0 1.6 14.5 0.00 0.76 0.76 40 1007.2
20260506133439 21 65 9.7 14.5 0.00 0.76 0.76 42 1007.2
20260506132939 21 117 1.6 11.3 0.00 0.76 0.76 43 1007.2
20260506132708 21 87 6.4 11.3 0.00 0.76 0.76 42 1007.2
20260506131939 21 149 3.2 9.7 0.00 0.76 0.76 42 1007.2
20260506131705 20 114 3.2 9.7 0.00 0.76 0.76 45 1007.4
20260506130938 19 255 1.6 8.0 0.00 0.76 0.76 45 1007.3
20260506130438 20 234 3.2 8.0 0.00 0.76 0.76 43 1007.4
20260506125937 20 61 4.8 8.0 0.00 0.76 0.76 42 1007.3
20260506125438 21 0 3.2 8.0 0.00 0.76 0.76 41 1007.3
20260506124937 21 0 4.8 6.4 0.00 0.76 0.76 44 1007.4
20260506124438 20 0 0.0 9.7 0.00 0.76 0.76 44 1007.4
20260506124420 20 0 4.8 11.3 0.00 0.76 0.76 44 1007.4
20260506123438 20 0 6.4 11.3 0.00 0.76 0.76 46 1007.4
20260506122937 20 0 6.4 11.3 0.00 0.76 0.76 45 1007.3
20260506122437 20 0 3.2 14.5 0.00 0.76 0.76 45 1007.4
20260506121937 19 0 4.8 14.5 0.00 0.76 0.76 46 1007.3
20260506121436 20 0 6.4 11.3 0.00 0.76 0.76 46 1007.3
20260506121417 19 0 3.2 9.7 0.00 0.76 0.76 47 1007.4
20260506120437 20 0 4.8 11.3 0.00 0.76 0.76 46 1007.3
20260506115936 19 0 6.4 14.5 0.00 0.76 0.76 48 1007.6
20260506115437 19 0 4.8 14.5 0.00 0.76 0.76 47 1007.6
20260506115430 19 0 6.4 11.3 0.00 0.76 0.76 48 1007.4
20260506114436 18 0 4.8 9.7 0.00 0.76 0.76 47 1007.4
20260506113937 19 0 4.8 9.7 0.00 0.76 0.76 47 1007.6
20260506113436 19 0 3.2 8.0 0.00 0.76 0.76 48 1007.6
20260506112936 18 0 3.2 14.5 0.00 0.76 0.76 47 1007.6
20260506112700 18 0 6.4 14.5 0.00 0.76 0.76 48 1007.6
20260506111935 18 0 6.4 11.3 0.00 0.76 0.76 48 1007.7
20260506111435 18 0 9.7 11.3 0.00 0.76 0.76 50 1007.7
20260506110936 18 0 3.2 6.4 0.00 0.76 0.76 51 1007.7
20260506110435 18 0 3.2 8.0 0.00 0.76 0.76 49 1007.8
20260506110421 18 0 3.2 9.7 0.00 0.76 0.76 50 1007.8
20260506105701 18 0 4.8 9.7 0.00 0.76 0.76 50 1008.0
20260506104935 17 0 4.8 8.0 0.00 0.76 0.76 50 1008.0
20260506104435 17 0 4.8 8.0 0.00 0.76 0.76 49 1008.0
20260506103935 17 0 3.2 6.4 0.00 0.76 0.76 50 1008.0
20260506103434 17 0 1.6 9.7 0.00 0.76 0.76 51 1008.1
20260506102935 17 0 3.2 9.7 0.00 0.76 0.76 50 1008.1
20260506102434 17 0 6.4 9.7 0.00 0.76 0.76 50 1008.0
20260506102146 17 0 4.8 9.7 0.00 0.76 0.76 52 1008.1
20260506102132 17 0 1.6 9.7 0.00 0.76 0.76 50 1008.1
20260506101153 16 0 3.2 9.7 0.00 0.76 0.76 51 1008.2
20260506100434 16 0 6.4 11.3 0.00 0.76 0.76 51 1008.2
20260506095934 16 0 8.0 11.3 0.00 0.76 0.76 52 1008.2
20260506095433 16 0 3.2 11.3 0.00 0.76 0.76 51 1008.2
20260506094933 16 0 6.4 11.3 0.00 0.76 0.76 51 1008.2
20260506094433 16 0 6.4 11.3 0.00 0.79 0.76 53 1008.2
20260506093933 16 0 6.4 11.3 0.00 0.79 0.76 53 1008.3
20260506093434 16 0 6.4 9.7 0.00 0.79 0.76 52 1008.4
20260506092933 15 0 6.4 14.5 0.00 0.79 0.76 52 1008.4
20260506092434 15 0 6.4 14.5 0.00 0.79 0.76 53 1008.4
20260506091933 15 0 8.0 14.5 0.00 0.79 0.76 52 1008.5
20260506091652 15 0 6.4 11.3 0.00 0.79 0.76 54 1008.5
20260506090934 15 0 6.4 17.7 0.00 0.79 0.76 55 1008.6
20260506090434 14 0 9.7 17.7 0.00 0.81 0.76 58 1008.7
20260506090151 14 0 9.7 16.1 0.00 0.81 0.76 63 1008.6
20260506085434 13 0 9.7 16.1 0.00 0.84 0.76 66 1008.6
20260506084934 13 0 6.4 9.7 0.00 0.84 0.76 68 1008.6
20260506084434 13 0 6.4 9.7 0.00 0.84 0.76 67 1008.6
20260506083934 13 0 6.4 9.7 0.00 0.84 0.76 68 1008.7
20260506083433 12 0 6.4 9.7 0.00 0.86 0.76 68 1008.7
20260506082933 12 0 6.4 9.7 0.00 0.86 0.76 67 1008.7
20260506082433 12 0 6.4 9.7 0.00 0.86 0.76 68 1008.8
20260506082155 12 0 6.4 9.7 0.00 0.89 0.76 68 1008.7
20260506081433 12 0 1.6 6.4 0.00 0.89 0.76 68 1008.7
20260506080933 12 0 3.2 4.8 0.00 0.89 0.76 68 1008.8
20260506080433 12 0 3.2 4.8 0.00 0.89 0.76 68 1008.8
20260506080158 12 0 1.6 3.2 0.00 0.89 0.76 68 1008.7
20260506073432 12 0 0.0 4.8 0.00 0.89 0.76 68 1008.7
20260506072932 12 0 0.0 4.8 0.00 0.89 0.76 68 1008.7
20260506072432 12 0 1.6 4.8 0.00 0.89 0.76 68 1008.7
20260506071932 12 0 1.6 3.2 0.00 0.89 0.76 68 1008.6
20260506071433 12 0 1.6 1.6 0.00 0.89 0.76 68 1008.7
20260506070932 12 0 0.0 0.0 0.00 0.89 0.76 68 1008.7
20260506070432 12 0 0.0 0.0 0.00 0.89 0.76 68 1008.7
20260506062430 12 0 0.0 0.0 0.08 0.89 0.76 68 1009.1
20260506061931 12 0 0.0 0.0 0.15 0.89 0.76 68 1009.0
20260506061430 12 0 0.0 0.0 0.25 0.89 0.76 68 1009.1
20260506060930 12 0 0.0 3.2 0.38 0.89 0.76 68 1009.1
20260506060430 12 0 0.0 3.2 0.46 0.89 0.76 67 1009.1
20260506050929 12 0 1.6 3.2 0.23 0.41 0.33 66 1009.3
20260506050428 12 0 1.6 3.2 0.15 0.41 0.30 66 1009.4
20260506044929 12 0 0.0 1.6 0.15 0.25 0.25 66 1009.3
20260506044428 12 0 0.0 3.2 0.15 0.28 0.25 65 1009.4
20260506044155 12 0 0.0 4.8 0.15 0.28 0.25 65 1009.5
20260506043428 12 0 1.6 4.8 0.15 0.30 0.23 65 1009.5
20260506042928 12 0 3.2 4.8 0.15 0.33 0.23 65 1009.6
20260506042650 12 0 0.0 3.2 0.15 0.33 0.18 65 1009.6
20260506042144 12 0 1.6 3.2 0.13 0.36 0.18 65 1009.5
20260506041428 12 0 0.0 4.8 0.13 0.43 0.18 65 1009.5
20260506040927 12 0 0.0 4.8 0.13 0.43 0.15 64 1009.6
20260506040428 12 0 3.2 4.8 0.10 0.48 0.15 64 1009.5
20260506040151 12 0 3.2 4.8 0.10 0.43 0.15 64 1009.4
20260506035427 12 0 1.6 3.2 0.10 0.43 0.15 64 1009.6
20260506034927 12 0 0.0 1.6 0.08 0.48 0.13 64 1009.8
20260506034427 12 0 0.0 3.2 0.05 0.51 0.10 64 1009.7
20260506033927 12 0 3.2 3.2 0.05 0.56 0.10 63 1009.7
20260506033427 12 0 0.0 4.8 0.05 0.61 0.08 63 1009.8
20260506032926 12 0 1.6 4.8 0.03 0.64 0.05 63 1009.8
20260506032426 12 0 1.6 4.8 0.03 0.69 0.05 63 1009.8
20260506031927 12 0 1.6 6.4 0.03 0.71 0.05 63 1009.9
20260506031427 12 0 4.8 6.4 0.03 0.76 0.05 63 1009.9
20260506030925 12 0 0.0 0.0 0.00 0.76 0.05 62 1010.1
20260506030426 12 0 0.0 0.0 0.00 0.79 0.05 62 1010.2
20260506030411 12 0 0.0 0.0 0.00 0.79 0.05 62 1010.3
20260506025426 12 0 0.0 0.0 0.00 0.81 0.05 62 1010.3
20260506024926 12 0 0.0 0.0 0.00 0.81 0.05 62 1010.4
20260506024426 12 0 0.0 0.0 0.00 0.81 0.05 62 1010.5
20260506024139 12 0 0.0 0.0 0.00 0.81 0.05 61 1010.5
20260506024122 12 0 0.0 0.0 0.00 0.81 0.05 61 1010.6
20260506022925 12 0 0.0 0.0 0.00 0.81 0.05 61 1010.5
20260506022425 12 0 0.0 0.0 0.00 0.84 0.05 61 1010.6
20260506021925 12 0 0.0 0.0 0.00 0.84 0.05 61 1010.7
20260506021425 12 0 0.0 0.0 0.00 0.84 0.05 61 1010.6
20260506020925 12 0 0.0 0.0 0.00 0.84 0.05 61 1010.5
20260506020425 12 0 0.0 0.0 0.00 0.84 0.05 61 1010.5
20260506015925 12 0 0.0 0.0 0.00 0.84 0.05 60 1010.8
20260506015425 12 0 0.0 0.0 0.00 0.84 0.05 60 1010.8
20260506014923 12 0 0.0 0.0 0.00 0.84 0.05 60 1010.8
20260506014647 12 0 0.0 0.0 0.00 0.84 0.05 60 1010.8
20260506013924 12 0 0.0 0.0 0.00 0.84 0.05 60 1010.7
20260506013424 12 0 0.0 0.0 0.00 0.84 0.05 60 1010.7
20260506012922 12 0 0.0 0.0 0.03 0.84 0.05 60 1010.8
20260506012423 12 0 0.0 0.0 0.03 0.84 0.05 60 1010.9
20260506011923 12 0 0.0 0.0 0.03 0.84 0.05 59 1010.9
20260506011422 12 0 0.0 0.0 0.05 0.84 0.05 59 1010.9
20260506010922 12 0 0.0 0.0 0.05 0.84 0.05 59 1011.0
20260506010423 12 0 0.0 0.0 0.05 0.84 0.05 59 1011.0
20260506005922 12 0 0.0 0.0 0.05 0.79 0.05 59 1011.2
20260506005423 12 0 0.0 0.0 0.05 0.79 0.05 59 1011.1
20260506004924 12 0 0.0 0.0 0.05 0.79 0.05 59 1011.5
20260506004639 12 0 0.0 0.0 0.05 0.79 0.05 59 1011.6
20260506003923 12 0 0.0 0.0 0.05 0.79 0.05 59 1011.7
20260506003423 12 0 0.0 0.0 0.05 0.79 0.05 59 1011.8
20260506003404 12 0 0.0 0.0 0.03 0.81 0.03 59 1011.9
20260506002422 12 0 0.0 0.0 0.03 0.81 0.03 59 1012.0
20260506001923 12 0 0.0 0.0 0.03 0.81 0.03 59 1012.1
20260506001423 12 0 0.0 0.0 0.00 0.81 0.00 59 1012.3
20260506000922 12 0 0.0 0.0 0.00 0.86 0.00 59 1012.4
20260506000423 12 0 0.0 0.0 0.00 0.89 0.00 59 1012.5
20260505235922 13 0 0.0 0.0 0.00 0.89 0.00 59 1012.4
20260505235422 13 0 0.0 0.0 0.00 0.91 0.00 59 1012.4
20260505234921 13 0 0.0 0.0 0.00 0.94 0.00 59 1012.5
20260505234422 13 0 0.0 0.0 0.00 0.94 0.00 58 1012.5
20260505234141 13 0 0.0 0.0 0.00 0.94 0.00 58 1012.5
20260505233643 13 0 0.0 0.0 0.00 0.94 0.00 58 1012.6
20260505232922 13 0 0.0 0.0 0.00 0.94 0.00 58 1012.7
20260505232422 13 0 0.0 0.0 0.00 0.94 0.00 58 1012.7
20260505231921 13 0 0.0 0.0 0.00 0.94 0.00 58 1012.6
20260505231418 13 0 0.0 0.0 0.00 0.94 0.00 58 1012.7
20260505231137 13 0 0.0 0.0 0.00 0.94 0.00 58 1012.7
20260505230636 13 0 0.0 0.0 0.00 0.94 0.00 58 1012.7
20260505225916 13 0 0.0 0.0 0.00 0.94 0.00 58 1012.7
20260505225405 13 0 0.0 0.0 0.00 0.94 0.00 58 1012.7
20260505224906 13 0 0.0 0.0 0.00 0.94 0.00 58 1012.7
20260505224406 13 0 0.0 0.0 0.00 0.94 0.00 58 1012.9
20260505223905 13 0 0.0 0.0 0.00 0.94 0.00 58 1012.9
20260505223406 13 0 0.0 0.0 0.00 0.94 0.00 58 1013.0
20260505222906 13 0 0.0 1.6 0.00 0.94 0.00 58 1013.0
20260505222629 13 0 0.0 1.6 0.00 0.94 0.00 58 1013.0
20260505221906 13 0 0.0 1.6 0.00 0.94 0.00 58 1013.0
20260505221406 13 0 0.0 4.8 0.00 0.94 0.00 57 1013.1
20260505220905 13 0 0.0 4.8 0.00 0.94 0.00 57 1012.9
20260505220405 13 0 0.0 0.0 0.00 0.94 0.00 57 1012.8
20260505220128 13 0 0.0 0.0 0.00 0.94 0.94 57 1012.9
20260505215405 13 0 0.0 0.0 0.00 0.94 0.94 57 1013.1
20260505214906 13 0 0.0 0.0 0.00 0.94 0.94 57 1013.0
20260505214626 13 0 0.0 0.0 0.00 0.94 0.94 57 1012.9
20260505213905 13 0 0.0 0.0 0.00 0.94 0.94 57 1013.0
20260505213406 13 0 0.0 0.0 0.00 0.94 0.94 57 1013.2
20260505212905 13 0 0.0 0.0 0.00 0.94 0.94 57 1013.3
20260505212405 13 0 0.0 0.0 0.00 0.94 0.94 58 1013.5
20260505211905 13 0 0.0 0.0 0.00 0.94 0.94 58 1013.5
20260505211405 13 0 0.0 0.0 0.00 0.94 0.94 58 1013.5
20260505210905 13 0 0.0 0.0 0.00 0.94 0.94 58 1013.5
20260505210405 12 0 0.0 0.0 0.00 0.94 0.94 58 1013.4
20260505210128 12 0 0.0 0.0 0.00 0.94 0.94 58 1013.3
20260505205406 12 0 0.0 0.0 0.00 0.94 0.94 58 1013.4
20260505204906 12 0 0.0 0.0 0.00 0.94 0.94 58 1013.4
20260505204405 12 0 0.0 0.0 0.00 0.94 0.94 58 1013.5